TimePST,TemperatureF,Dew PointF,Humidity,Sea Level PressureIn,VisibilityMPH,Wind Direction,Wind SpeedMPH,Gust SpeedMPH,PrecipitationIn,Events,Conditions,WindDirDegrees,DateUTC
12:00 AM,-34.6,-41.8,68,30.70,10.0,Calm,Calm,-,N/A,Snow,Light Snow,0,2013-12-18 08:00:00
1:00 AM,-34.6,-41.8,68,30.72,20.0,Calm,Calm,-,N/A,Snow,Light Snow,0,2013-12-18 09:00:00
2:00 AM,-36.4,-43.6,67,30.73,20.0,Calm,Calm,-,N/A,Snow,Light Snow,0,2013-12-18 10:00:00
3:00 AM,-38.2,-45.4,67,30.74,20.0,Calm,Calm,-,N/A,Snow,Light Snow,0,2013-12-18 11:00:00
4:00 AM,-41,-47,52,30.75,19,North,2.3,,,,,0,2013-12-18 12:00:00
4:00 AM,-40.0,-47.2,67,30.75,20.0,North,2.3,-,N/A,Snow,Light Snow,360,2013-12-18 12:00:00
5:00 AM,-41.8,-49.0,67,30.77,4.0,Calm,Calm,-,N/A,Snow,Light Snow,0,2013-12-18 13:00:00
6:00 AM,-38.2,-45.4,67,30.76,15.0,Variable,2.3,-,N/A,Snow,Light Snow,0,2013-12-18 14:00:00
7:00 AM,-38.2,-45.4,67,30.76,20.0,Calm,Calm,-,N/A,Snow,Light Snow,0,2013-12-18 15:00:00
8:00 AM,-40.0,-47.2,67,30.76,20.0,East,2.3,-,N/A,Snow,Light Snow,90,2013-12-18 16:00:00
9:00 AM,-38.2,-45.4,67,30.74,20.0,Calm,Calm,-,N/A,Snow,Light Snow,0,2013-12-18 17:00:00
10:00 AM,-37,-44,51,30.74,19,North,2.3,,,,,10,2013-12-18 18:00:00
10:00 AM,-36.4,-43.6,67,30.74,20.0,North,2.3,-,N/A,Snow,Light Snow,10,2013-12-18 18:00:00
11:00 AM,-36.4,-43.6,67,30.74,20.0,Calm,Calm,-,N/A,Snow,Light Snow,0,2013-12-18 19:00:00
12:00 PM,-34.6,-41.8,68,30.75,20.0,Calm,Calm,-,N/A,Snow,Light Snow,0,2013-12-18 20:00:00
1:00 PM,-32.8,-40.0,68,30.73,20.0,Calm,Calm,-,N/A,Snow,Light Snow,0,2013-12-18 21:00:00
2:00 PM,-31.0,-38.2,68,30.71,20.0,ENE,2.3,-,N/A,Snow,Light Snow,70,2013-12-18 22:00:00
3:00 PM,-31.0,-38.2,68,30.71,20.0,Variable,2.3,-,N/A,Snow,Light Snow,0,2013-12-18 23:00:00
3:25 PM,-31.0,-38.2,68,30.69,20.0,Variable,2.3,-,N/A,,Scattered Clouds,0,2013-12-18 23:25:00
4:00 PM,-35,-41,54,30.69,19,West,3.5,,,,,280,2013-12-19 00:00:00
4:00 PM,-34.6,-41.8,68,30.69,20.0,West,3.5,-,N/A,,Scattered Clouds,280,2013-12-19 00:00:00
5:00 PM,-36.4,-43.6,67,30.66,20.0,NNE,2.3,-,N/A,,Partly Cloudy,30,2013-12-19 01:00:00
6:00 PM,-40.0,-45.4,74,30.60,20.0,Calm,Calm,-,N/A,,Partly Cloudy,0,2013-12-19 02:00:00
7:00 PM,-38.2,-45.4,67,30.61,20.0,Calm,Calm,-,N/A,Fog,Scattered Clouds,0,2013-12-19 03:00:00
8:00 PM,-38.2,-45.4,67,30.61,20.0,Calm,Calm,-,N/A,Fog,Scattered Clouds,0,2013-12-19 04:00:00
9:00 PM,-36.4,-43.6,67,30.54,20.0,Calm,Calm,-,N/A,Fog,Mostly Cloudy,0,2013-12-19 05:00:00
10:00 PM,-36,-43,51,30.52,19,SSE,1.2,,,,,150,2013-12-19 06:00:00
10:00 PM,-36.4,-43.6,67,30.52,20.0,Calm,Calm,-,N/A,,Mostly Cloudy,0,2013-12-19 06:00:00
11:00 PM,-36.4,-43.6,67,30.48,20.0,SSE,2.3,-,N/A,,Clear,160,2013-12-19 07:00:00